www.pogodaiklimat.ru

Погода и климат >> Архив погоды >> Пакистан >> Rohri


ПОГОДА в Rohri

  • Прогноз погоды в Rohri
  • Монитор погоды в Rohri
  • Климат города

АРХИВ ПОГОДЫ в Rohri

Время (UTC), дата Ветер
(напр.,м/с)
 
Видим.   Явления Облачность Т
(С)
Тd
(С)
f
(%)
Тe
(С)
Тes
(С)
Комфортность P
(гПа)
Po
(гПа)
Тmin
(С)
Tmax
(С)
R
(мм)
R24
(мм)
S
(см)
21 15.10 штиль 0 4000 м мгла ясно +23.5 +15.2 60 +26 +26 жарко 1009.6 1000.0
00 16.10 штиль 0 4000 м мгла ясно +23.0 +16.5 67 +28 +28 душно 1010.0 1002.3
03 16.10 штиль 0 4000 м мгла 4/0
[Ac trans]
+21.5 +16.6 74 +25 +27 комфорт 1011.3 1003.5 +18.5
06 16.10 штиль 0 10 км 4/0
[Ac trans]
+32.5 +16.9 39 +36 +48 очень
душно
1012.3 1000.0
09 16.10 штиль 0 10 км 4/0
[Ac trans]
+36.0 +7.8 18 +34 +45 очень
жарко
1009.8 1000.0
12 16.10 штиль 0 10 км 4/0
[Ac trans]
+35.5 +12.5 25 +35 +37 очень
жарко
1008.3 1000.9 +36.5
15 16.10 штиль 0 4000 м мгла ясно +30.0 +15.6 42 +33 +33 душно 1009.0 1000.0
18 16.10 штиль 0 4000 м мгла ясно +25.0 +15.1 54 +28 +28 жарко 1010.9 1000.0
21 16.10 штиль 0 4000 м мгла ясно +23.5 +15.2 60 +26 +26 жарко 1009.9 1000.0
00 17.10 штиль 0 4000 м мгла ясно +23.0 +16.5 67 +28 +28 душно 1010.5 1002.8
03 17.10 штиль 0 4000 м мгла ясно +21.5 +16.6 74 +25 +27 комфорт 1011.6 1003.8 +18.1
06 17.10 штиль 0 4000 м мгла ясно +21.5 +16.6 74 +25 +41 комфорт 1011.6 1003.8 +18.1
09 17.10 СВ 1 10 км ясно +35.0 +5.8 16 +32 +45 жарко 1009.1 1009.0
12 17.10 штиль 0 10 км ясно +35.5 +6.8 17 +33 +35 жарко 1008.0 1000.6 +36.1
15 17.10 штиль 0 4000 м ясно +29.0 +14.2 40 +31 +31 жарко 1008.6 1000.0
18 17.10 штиль 0 4000 м мгла ясно +24.0 +11.7 46 +26 +26 жарко 1009.6 1000.0
21 17.10 штиль 0 4000 м мгла ясно +22.5 +14.0 59 +26 +26 жарко 1008.4 1000.0
00 18.10 штиль 0 4000 м мгла ясно +20.0 +13.0 64 +22 +22 комфорт 1009.0 1001.2
03 18.10 штиль 0 4000 м мгла ясно +21.0 +14.2 65 +24 +26 комфорт 1010.6 1002.8 +18.1
06 18.10 штиль 0 10 км ясно +32.0 +11.8 29 +32 +48 жарко 1011.5 1000.0
09 18.10 СВ 1 10 км ясно +35.0 +5.8 16 +32 +46 жарко 1009.4 1000.0
12 18.10 штиль 0 10 км ясно +34.0 +6.9 19 +32 +33 жарко 1007.8 1000.4 +35.5
15 18.10 штиль 0 4000 м ясно +28.0 +14.9 45 +31 +31 душно 1008.7 1000.0
18 18.10 штиль 0 4000 м мгла ясно +23.5 +15.2 60 +26 +26 жарко 1010.4 1000.0
21 18.10 штиль 0 4000 м мгла ясно +22.0 +15.4 66 +26 +26 душно 1009.8 1000.0
00 19.10 штиль 0 4000 м мгла ясно +23.0 +14.6 59 +27 +27 душно 1010.1 1002.4
03 19.10 штиль 0 4000 м мгла ясно +21.0 +14.2 65 +24 +25 комфорт 1011.3 1003.5 +17.5
06 19.10 штиль 0 10 км ясно +31.0 +10.1 27 +31 +46 жарко 1012.9 1000.0
09 19.10 СВ 1 10 км ясно +34.0 +3.5 15 +31 +44 жарко 1010.6 1000.0
12 19.10 СВ 1 10 км ясно +32.5 +10.0 25 +32 +33 жарко 1010.2 1002.7 +34.5
15 19.10 штиль 0 4000 м мгла ясно +27.0 +13.6 44 +29 +29 жарко 1011.4 1000.0
18 19.10 штиль 0 4000 м мгла ясно +23.0 +12.6 52 +26 +26 жарко 1012.5 1000.0
21 19.10 штиль 0 4000 м мгла ясно +21.5 +12.8 58 +24 +24 комфорт 1012.1 1000.0
00 20.10 штиль 0 4000 м мгла ясно +20.5 +13.6 65 +23 +23 комфорт 1012.4 1004.6
03 20.10 штиль 0 4000 м мгла ясно +19.5 +14.4 72 +21 +23 комфорт 1014.2 1006.3 +16.5
06 20.10 штиль 0 10 км ясно +30.0 +13.4 36 +31 +46 жарко 1015.7 1000.0
12 20.10 СВ 1 10 км ясно +33.5 +2.3 14 +30 +32 жарко 1011.8 1004.3 +34.1
15 20.10 штиль 0 4000 м ясно +26.0 +12.2 42 +27 +27 жарко 1012.5 1000.0
18 20.10 штиль 0 4000 м мгла ясно +22.0 +13.4 58 +25 +25 комфорт 1014.4 1000.0
21 20.10 штиль 0 4000 м мгла ясно +20.5 +13.6 65 +23 +23 комфорт 1013.6 1000.0
00 21.10 штиль 0 4000 м мгла ясно +19.5 +14.4 72 +21 +21 комфорт 1013.9 1006.0
03 21.10 штиль 0 4000 м мгла ясно +20.0 +13.0 64 +22 +23 комфорт 1015.2 1007.3 +16.5
06 21.10 штиль 0 10 км ясно +30.0 +15.6 42 +33 +48 душно 1016.0 1000.0
09 21.10 штиль 0 10 км ясно +34.0 +9.9 23 +33 +47 жарко 1013.8 1000.0
12 21.10 СВ 1 10 км ясно +33.0 +8.1 21 +31 +33 жарко 1012.5 1005.0 +34.1
15 21.10 штиль 0 4000 м ясно +28.0 +14.9 45 +31 +31 душно 1013.5 1000.0
18 21.10 штиль 0 4000 м мгла ясно +23.0 +14.6 59 +27 +27 душно 1014.7 1000.0
21 21.10 штиль 0 4000 м мгла ясно +21.5 +14.8 66 +25 +25 комфорт 1014.1 1000.0
00 22.10 штиль 0 4000 м мгла ясно +20.0 +14.9 72 +22 +22 комфорт 1014.5 1006.6
03 22.10 штиль 0 4000 м мгла ясно +18.5 +13.2 71 +19 +21 1014.9 1007.0 +15.1
06 22.10 штиль 0 10 км ясно +31.0 +12.6 32 +32 +46 жарко 1014.6 1000.0
09 22.10 штиль 0 10 км ясно +34.0 +9.9 23 +33 +47 жарко 1013.2 1000.0
12 22.10 штиль 0 10 км ясно +35.0 +8.9 20 +33 +35 жарко 1011.0 1003.6 +36.1
15 22.10 штиль 0 4000 м ясно +29.5 +10.3 30 +30 +30 жарко 1011.4 1000.0

 

Местоположение метеостанции Rohri (Пакистан): широта 27.67 долгота 68.90 высота над уровнем моря 68 м.

В архиве по умолчанию представлена погода в Rohri за последнюю неделю. Архивные данные за месяц целиком и за предыдущие месяцы, начиная с января 2011 года, Вы можете получить, выбрав интересующий диапазон дат из раскрывающегося списка и нажав кнопку "Ввод!".


*Определитесь, кто Вы:
робот инопланетянин человек

Внимание! Время в таблицах - всемирное. Для получения местного времени необходимо прибавить поправку, которая в Rohri равна 5 ч.

Смотрите также архив погоды в соседних городах и на ближайших метеорологических станциях:

Погода в Jacobabad (Пакистан) (82 км)
Погода в Pad Idan (Пакистан) (119 км)
Погода в Nawabshah (Пакистан) (166 км)
Погода в Khanpur (Пакистан) (206 км)
Погода в Jaisalmer (Rajasthan, Индия) (217 км)
Погода в Khuzdar (Пакистан) (224 км)
Погода в Sibi (Пакистан) (232 км)
Погода в Chhor (Пакистан) (255 км)
Погода в Barkhan (Пакистан) (258 км)
Погода в Hyderabad (Пакистан) (259 км)

Пояснения к столбцам:

Ветер - указаны скорость ветра в м/с - средняя за 10 мин, порывы в срок и между сроками (в фигурных скобках) и направление, откуда дует ветер: С - северный, СВ - северо-восточный, В - восточный, ЮВ - юго-восточный, Ю - южный, ЮЗ - юго-западный, З - западный, СЗ - северо-западный.
Видимость - горизонтальная дальность видимости в метрах или километрах. При видимости от 1 до 10 км при отсутствии осадков обычно наблюдается дымка, при ухудшении видимости до 1 км и менее - туман. В сухую погоду видимость может ухудшаться дымом, пылью или мглою.
Явления - указаны атмосферные явления, наблюдавшиеся в срок или в последний час перед сроком; фигурными скобками обозначены явления, наблюдавшиеся между сроками (за 1-3 часа до срока); квадратными скобками обозначены град или гололедные отложения с указанием их диаметра в мм.
Облачность - указаны через наклонную черту общая и нижняя облачность в баллах и высота нижней границы облаков в метрах; квадратными скобками обозначены формы облаков: Ci - перистые, Cs - перисто-слоистые, Cc - перисто-кучевые, Ac - высококучевые, As - высокослоистые, Sc - слоисто-кучевые, Ns - слоисто-дождевые, Cu - кучевые, Cb - кучево-дождевые. Подробнее классификацию облаков см. в Атласе облаков (PDF).
T - Температура воздуха - температура, измеренная на высоте 2 м над землей.
Td - Температура точки росы - температура, при понижении до которой содержащийся в воздухе водяной пар достигнет насыщения.
f - Относительная влажность воздуха - влажноcть воздуха, измеренная на высоте 2 м над землей.
Te - Эффективная температура - температура, которую ощущает одетый по сезону человек в тени. Характеристика душности погоды. При расчете учитывается влияние влажности воздуха и скорости ветра на теплоощущения человека.
Tes - Эффективная температура на солнце - температура, которую ощущает человек, с поправкой на солнечный нагрев. Характеристика знойности погоды. Зависит от высоты солнца над горизонтом, облачности и скорости ветра. Ночью, в пасмурную погоду, а также при ветре 12 м/с и более поправка равна нулю.
P - Атмосферное давление - приведенное к уровню моря атмосферное давление.
Po - Атмосферное давление - измеренное на уровне метеостанции атмосферное давление.
Tmin - Минимальная температура - минимум температуры воздуха на высоте 2 м над землей.
Tmax - Максимальная температура - максимум температуры воздуха на высоте 2 м над землей.
R - Количество осадков - Количество выпавших осадков за период времени, мм. При наведении курсора мыши на число - период времени, за который выпало указанное количество осадков.
R24 - Количество осадков - Количество выпавших осадков за 24 часа, мм.
S - Снежный покров - Высота снежного покрова, см. При наведении курсора мыши на число - состояние снежного покрова и степень покрытия местности в баллах.